| time (UTC) | temp F | wind direction | speed MPH | gust MPH | rain 1hr in | rain 24hr in | rain mn in | humidity % | barometer mb |
| 20260510231106 | 57 | 331 | 0.0 | 0.0 | 0.00 | 0.10 | 0.00 | 97 | 1012.4 |
| 20260510230604 | 57 | 331 | 0.0 | 0.0 | 0.00 | 0.10 | 0.00 | 97 | 1012.5 |
| 20260510230104 | 57 | 331 | 0.0 | 2.0 | 0.00 | 0.10 | 0.00 | 97 | 1012.5 |
| 20260510225104 | 58 | 331 | 1.0 | 0.0 | 0.00 | 0.10 | 0.00 | 97 | 1012.6 |
| 20260510224604 | 58 | 331 | 1.0 | 0.0 | 0.00 | 0.10 | 0.00 | 97 | 1012.6 |
| 20260510224106 | 58 | 332 | 1.0 | 2.0 | 0.00 | 0.10 | 0.00 | 97 | 1012.7 |
| 20260510223604 | 58 | 249 | 0.0 | 3.0 | 0.00 | 0.10 | 0.00 | 97 | 1012.7 |
| 20260510223104 | 58 | 152 | 0.0 | 2.0 | 0.00 | 0.10 | 0.00 | 97 | 1012.7 |
| 20260510222104 | 58 | 268 | 0.0 | 2.0 | 0.00 | 0.10 | 0.00 | 97 | 1012.8 |
| 20260510221612 | 58 | 268 | 0.0 | 2.0 | 0.00 | 0.10 | 0.00 | 97 | 1012.8 |
| 20260510220104 | 58 | 342 | 0.0 | 2.0 | 0.02 | 0.10 | 0.00 | 97 | 1012.8 |
| 20260510215604 | 58 | 4 | 0.0 | 0.0 | 0.02 | 0.10 | 0.10 | 97 | 1012.9 |
| 20260510215104 | 58 | 4 | 0.0 | 0.0 | 0.02 | 0.10 | 0.10 | 97 | 1012.9 |
| 20260510214104 | 58 | 4 | 0.0 | 0.0 | 0.02 | 0.10 | 0.10 | 97 | 1013.0 |
| 20260510213605 | 58 | 4 | 0.0 | 0.0 | 0.03 | 0.10 | 0.10 | 97 | 1013.1 |
| 20260510213105 | 58 | 4 | 0.0 | 0.0 | 0.03 | 0.10 | 0.10 | 97 | 1013.1 |
| 20260510212105 | 58 | 4 | 0.0 | 0.0 | 0.03 | 0.10 | 0.10 | 97 | 1013.2 |
| 20260510211105 | 58 | 4 | 0.0 | 0.0 | 0.04 | 0.10 | 0.10 | 96 | 1013.3 |
| 20260510210604 | 58 | 4 | 0.0 | 0.0 | 0.02 | 0.08 | 0.08 | 96 | 1013.4 |
| 20260510210104 | 58 | 4 | 0.0 | 0.0 | 0.02 | 0.08 | 0.08 | 96 | 1013.4 |
| 20260510205604 | 58 | 4 | 0.0 | 0.0 | 0.02 | 0.08 | 0.08 | 96 | 1013.5 |
| 20260510205104 | 58 | 4 | 0.0 | 2.0 | 0.02 | 0.08 | 0.08 | 96 | 1013.5 |
| 20260510204619 | 58 | 4 | 0.0 | 0.0 | 0.02 | 0.08 | 0.08 | 96 | 1013.5 |
| 20260510204119 | 58 | 4 | 0.0 | 1.0 | 0.02 | 0.08 | 0.08 | 96 | 1013.6 |
| 20260510203604 | 58 | 4 | 0.0 | 0.0 | 0.01 | 0.07 | 0.07 | 96 | 1013.6 |
| 20260510203104 | 58 | 4 | 0.0 | 2.0 | 0.01 | 0.07 | 0.07 | 96 | 1013.6 |
| 20260510202604 | 58 | 5 | 0.0 | 3.0 | 0.01 | 0.07 | 0.07 | 96 | 1013.5 |
| 20260510201604 | 58 | 7 | 0.0 | 2.0 | 0.01 | 0.07 | 0.07 | 96 | 1013.5 |
| 20260510201104 | 58 | 62 | 0.0 | 0.0 | 0.00 | 0.06 | 0.06 | 96 | 1013.5 |
| 20260510195606 | 58 | 62 | 0.0 | 0.0 | 0.00 | 0.06 | 0.06 | 96 | 1013.5 |
| 20260510194604 | 58 | 62 | 0.0 | 0.0 | 0.00 | 0.06 | 0.06 | 96 | 1013.5 |
| 20260510194104 | 58 | 62 | 0.0 | 0.0 | 0.00 | 0.06 | 0.06 | 95 | 1013.5 |
| 20260510193605 | 58 | 62 | 0.0 | 0.0 | 0.00 | 0.06 | 0.06 | 95 | 1013.5 |
| 20260510193104 | 58 | 62 | 0.0 | 0.0 | 0.00 | 0.06 | 0.06 | 95 | 1013.5 |
| 20260510192604 | 58 | 62 | 0.0 | 0.0 | 0.00 | 0.06 | 0.06 | 95 | 1013.4 |
| 20260510192104 | 58 | 62 | 0.0 | 0.0 | 0.00 | 0.06 | 0.06 | 95 | 1013.4 |
| 20260510191604 | 58 | 62 | 0.0 | 0.0 | 0.00 | 0.06 | 0.06 | 95 | 1013.4 |
| 20260510190604 | 58 | 62 | 0.0 | 0.0 | 0.00 | 0.06 | 0.06 | 95 | 1013.3 |
| 20260510190104 | 58 | 62 | 0.0 | 0.0 | 0.00 | 0.06 | 0.06 | 95 | 1013.3 |
| 20260510185604 | 58 | 62 | 0.0 | 0.0 | 0.00 | 0.06 | 0.06 | 95 | 1013.2 |
| 20260510185104 | 58 | 62 | 1.0 | 0.0 | 0.00 | 0.06 | 0.06 | 95 | 1013.2 |
| 20260510184604 | 58 | 62 | 1.0 | 1.0 | 0.00 | 0.06 | 0.06 | 95 | 1013.2 |
| 20260510184104 | 58 | 62 | 1.0 | 2.0 | 0.00 | 0.06 | 0.06 | 95 | 1013.1 |
| 20260510183104 | 58 | 34 | 0.0 | 3.0 | 0.00 | 0.06 | 0.06 | 94 | 1013.1 |
| 20260510182604 | 58 | 358 | 0.0 | 2.0 | 0.00 | 0.06 | 0.06 | 94 | 1013.2 |
| 20260510181104 | 59 | 336 | 1.0 | 2.0 | 0.00 | 0.06 | 0.06 | 94 | 1013.2 |
| 20260510180104 | 59 | 352 | 1.0 | 3.0 | 0.00 | 0.06 | 0.06 | 93 | 1013.2 |
| 20260510175604 | 59 | 346 | 0.0 | 2.0 | 0.00 | 0.06 | 0.06 | 93 | 1013.2 |
| 20260510175104 | 59 | 1 | 0.0 | 3.0 | 0.00 | 0.06 | 0.06 | 93 | 1013.2 |
| 20260510174604 | 59 | 8 | 0.0 | 2.0 | 0.00 | 0.06 | 0.06 | 92 | 1013.2 |
| 20260510173604 | 60 | 354 | 0.0 | 3.0 | 0.00 | 0.06 | 0.06 | 92 | 1013.2 |
| 20260510172604 | 60 | 36 | 1.0 | 2.0 | 0.00 | 0.06 | 0.06 | 92 | 1013.1 |
| 20260510172119 | 60 | 36 | 1.0 | 2.0 | 0.00 | 0.06 | 0.06 | 92 | 1013.0 |
| 20260510171607 | 60 | 39 | 1.0 | 2.0 | 0.00 | 0.06 | 0.06 | 92 | 1013.0 |
| 20260510171104 | 60 | 341 | 1.0 | 3.0 | 0.00 | 0.06 | 0.06 | 92 | 1013.1 |
| 20260510170607 | 60 | 43 | 1.0 | 3.0 | 0.00 | 0.06 | 0.06 | 92 | 1013.1 |
| 20260510170108 | 60 | 328 | 1.0 | 2.0 | 0.00 | 0.06 | 0.06 | 92 | 1013.1 |
| 20260510165606 | 60 | 329 | 0.0 | 2.0 | 0.00 | 0.06 | 0.06 | 92 | 1013.2 |
| 20260510165106 | 60 | 328 | 0.0 | 2.0 | 0.00 | 0.06 | 0.06 | 92 | 1013.2 |
| 20260510164604 | 60 | 328 | 0.0 | 2.0 | 0.00 | 0.06 | 0.06 | 92 | 1013.2 |
| 20260510164104 | 60 | 328 | 1.0 | 1.0 | 0.00 | 0.06 | 0.06 | 93 | 1013.3 |
| 20260510163104 | 60 | 328 | 2.0 | 2.0 | 0.00 | 0.06 | 0.06 | 92 | 1013.4 |
| 20260510162604 | 60 | 328 | 2.0 | 2.0 | 0.00 | 0.06 | 0.06 | 92 | 1013.5 |
| 20260510161604 | 60 | 306 | 2.0 | 3.0 | 0.00 | 0.06 | 0.06 | 91 | 1013.5 |
| 20260510161103 | 60 | 306 | 1.0 | 3.0 | 0.00 | 0.06 | 0.06 | 91 | 1013.6 |
| 20260510160604 | 60 | 309 | 1.0 | 5.0 | 0.00 | 0.06 | 0.06 | 91 | 1013.7 |
| 20260510155604 | 60 | 308 | 2.0 | 2.0 | 0.00 | 0.06 | 0.06 | 92 | 1013.8 |
| 20260510155103 | 60 | 308 | 1.0 | 2.0 | 0.00 | 0.06 | 0.06 | 91 | 1013.8 |
| 20260510154604 | 60 | 308 | 1.0 | 5.0 | 0.00 | 0.06 | 0.06 | 91 | 1013.8 |
| 20260510154104 | 61 | 324 | 2.0 | 3.0 | 0.00 | 0.06 | 0.06 | 91 | 1013.8 |
| 20260510153604 | 61 | 291 | 2.0 | 2.0 | 0.00 | 0.06 | 0.06 | 90 | 1013.8 |
| 20260510153104 | 61 | 268 | 1.0 | 6.0 | 0.00 | 0.06 | 0.06 | 89 | 1013.8 |
| 20260510152106 | 61 | 200 | 2.0 | 5.0 | 0.00 | 0.06 | 0.06 | 88 | 1013.9 |
| 20260510151619 | 61 | 121 | 2.0 | 2.0 | 0.00 | 0.06 | 0.06 | 87 | 1013.9 |
| 20260510151105 | 61 | 121 | 2.0 | 3.0 | 0.00 | 0.06 | 0.06 | 88 | 1014.0 |
| 20260510150105 | 61 | 119 | 2.0 | 5.0 | 0.00 | 0.06 | 0.06 | 87 | 1014.1 |
| 20260510145604 | 61 | 127 | 2.0 | 3.0 | 0.00 | 0.06 | 0.06 | 88 | 1014.1 |
| 20260510145105 | 61 | 124 | 2.0 | 3.0 | 0.00 | 0.06 | 0.06 | 88 | 1014.1 |
| 20260510144604 | 61 | 121 | 2.0 | 3.0 | 0.00 | 0.06 | 0.06 | 88 | 1014.1 |
| 20260510144103 | 61 | 118 | 1.0 | 2.0 | 0.00 | 0.06 | 0.06 | 87 | 1014.2 |
| 20260510142604 | 61 | 164 | 0.0 | 2.0 | 0.00 | 0.06 | 0.06 | 88 | 1014.3 |
| 20260510142104 | 61 | 164 | 0.0 | 2.0 | 0.00 | 0.06 | 0.06 | 87 | 1014.3 |
| 20260510141604 | 61 | 230 | 0.0 | 2.0 | 0.00 | 0.06 | 0.06 | 89 | 1014.3 |
| 20260510141104 | 61 | 236 | 0.0 | 2.0 | 0.00 | 0.06 | 0.06 | 89 | 1014.3 |
| 20260510140604 | 61 | 235 | 0.0 | 2.0 | 0.00 | 0.06 | 0.06 | 89 | 1014.3 |
| 20260510140106 | 61 | 159 | 0.0 | 2.0 | 0.00 | 0.06 | 0.06 | 90 | 1014.3 |
| 20260510135605 | 61 | 159 | 0.0 | 2.0 | 0.00 | 0.06 | 0.06 | 90 | 1014.4 |
| 20260510135104 | 61 | 179 | 0.0 | 2.0 | 0.00 | 0.06 | 0.06 | 89 | 1014.5 |
| 20260510134604 | 61 | 318 | 0.0 | 2.0 | 0.00 | 0.06 | 0.06 | 90 | 1014.5 |
| 20260510134104 | 61 | 318 | 0.0 | 2.0 | 0.00 | 0.06 | 0.06 | 90 | 1014.6 |
| 20260510133604 | 60 | 318 | 0.0 | 0.0 | 0.00 | 0.06 | 0.06 | 90 | 1014.7 |
| 20260510133103 | 60 | 318 | 1.0 | 1.0 | 0.00 | 0.06 | 0.06 | 90 | 1014.7 |
| 20260510132104 | 60 | 319 | 1.0 | 2.0 | 0.00 | 0.06 | 0.06 | 90 | 1014.7 |
| 20260510131605 | 60 | 318 | 1.0 | 3.0 | 0.00 | 0.06 | 0.06 | 89 | 1014.7 |
| 20260510131106 | 61 | 318 | 1.0 | 3.0 | 0.00 | 0.06 | 0.06 | 90 | 1014.7 |
| 20260510130604 | 61 | 319 | 1.0 | 3.0 | 0.00 | 0.06 | 0.06 | 90 | 1014.7 |
| 20260510125604 | 61 | 291 | 0.0 | 3.0 | 0.00 | 0.06 | 0.06 | 90 | 1014.8 |
| 20260510125111 | 61 | 286 | 2.0 | 2.0 | 0.00 | 0.06 | 0.06 | 90 | 1014.8 |
| 20260510124605 | 61 | 286 | 2.0 | 2.0 | 0.00 | 0.06 | 0.06 | 90 | 1014.8 |
| 20260510124104 | 60 | 285 | 1.0 | 3.0 | 0.00 | 0.06 | 0.06 | 90 | 1014.9 |
| 20260510123604 | 60 | 320 | 1.0 | 3.0 | 0.00 | 0.06 | 0.06 | 89 | 1014.9 |
| 20260510123107 | 60 | 259 | 1.0 | 2.0 | 0.00 | 0.06 | 0.06 | 89 | 1014.9 |
| 20260510122607 | 60 | 241 | 1.0 | 3.0 | 0.00 | 0.06 | 0.06 | 89 | 1015.0 |
| 20260510120605 | 60 | 318 | 2.0 | 5.0 | 0.00 | 0.06 | 0.06 | 89 | 1015.1 |
| 20260510120105 | 60 | 309 | 2.0 | 5.0 | 0.00 | 0.06 | 0.06 | 88 | 1015.1 |
| 20260510115603 | 60 | 313 | 2.0 | 5.0 | 0.00 | 0.06 | 0.06 | 88 | 1015.1 |
| 20260510115107 | 60 | 305 | 1.0 | 5.0 | 0.00 | 0.06 | 0.06 | 88 | 1015.1 |
| 20260510114604 | 60 | 308 | 0.0 | 2.0 | 0.00 | 0.06 | 0.06 | 88 | 1015.1 |
| 20260510114104 | 60 | 254 | 1.0 | 2.0 | 0.00 | 0.06 | 0.06 | 88 | 1015.1 |
| 20260510113604 | 60 | 323 | 1.0 | 2.0 | 0.00 | 0.06 | 0.06 | 88 | 1015.1 |
| 20260510113104 | 60 | 323 | 1.0 | 2.0 | 0.00 | 0.06 | 0.06 | 88 | 1015.1 |
| 20260510112604 | 60 | 323 | 1.0 | 3.0 | 0.00 | 0.06 | 0.06 | 88 | 1015.1 |
| 20260510112104 | 60 | 334 | 1.0 | 3.0 | 0.00 | 0.06 | 0.06 | 88 | 1015.1 |
| 20260510111604 | 60 | 352 | 1.0 | 2.0 | 0.00 | 0.06 | 0.06 | 88 | 1015.1 |
| 20260510111104 | 60 | 359 | 1.0 | 2.0 | 0.00 | 0.06 | 0.06 | 89 | 1015.3 |
| 20260510110604 | 60 | 46 | 1.0 | 3.0 | 0.00 | 0.06 | 0.06 | 89 | 1015.4 |
| 20260510110104 | 60 | 175 | 1.0 | 2.0 | 0.00 | 0.06 | 0.06 | 89 | 1015.4 |
| 20260510105607 | 60 | 171 | 0.0 | 3.0 | 0.00 | 0.06 | 0.06 | 89 | 1015.4 |
| 20260510104604 | 60 | 263 | 0.0 | 2.0 | 0.00 | 0.06 | 0.06 | 88 | 1015.4 |
| 20260510104104 | 60 | 263 | 1.0 | 2.0 | 0.00 | 0.06 | 0.06 | 88 | 1015.4 |
| 20260510103605 | 60 | 293 | 1.0 | 2.0 | 0.00 | 0.06 | 0.06 | 88 | 1015.4 |
| 20260510103104 | 60 | 278 | 1.0 | 2.0 | 0.00 | 0.06 | 0.06 | 88 | 1015.4 |
| 20260510102604 | 61 | 161 | 0.0 | 2.0 | 0.00 | 0.06 | 0.06 | 88 | 1015.5 |
| 20260510102104 | 60 | 155 | 1.0 | 2.0 | 0.00 | 0.06 | 0.06 | 89 | 1015.5 |
| 20260510101604 | 60 | 152 | 1.0 | 2.0 | 0.00 | 0.06 | 0.06 | 89 | 1015.5 |
| 20260510100603 | 60 | 162 | 0.0 | 2.0 | 0.00 | 0.06 | 0.06 | 90 | 1015.6 |
| 20260510095604 | 60 | 249 | 1.0 | 5.0 | 0.00 | 0.06 | 0.06 | 90 | 1015.5 |
| 20260510095105 | 59 | 151 | 1.0 | 3.0 | 0.00 | 0.06 | 0.06 | 90 | 1015.5 |
| 20260510094605 | 59 | 151 | 0.0 | 2.0 | 0.00 | 0.06 | 0.06 | 90 | 1015.5 |
| 20260510094104 | 59 | 152 | 1.0 | 2.0 | 0.00 | 0.06 | 0.06 | 91 | 1015.5 |
| 20260510093604 | 59 | 146 | 1.0 | 2.0 | 0.00 | 0.06 | 0.06 | 91 | 1015.5 |
| 20260510092605 | 59 | 134 | 1.0 | 2.0 | 0.00 | 0.06 | 0.06 | 91 | 1015.6 |
| 20260510092104 | 59 | 136 | 1.0 | 3.0 | 0.00 | 0.06 | 0.06 | 92 | 1015.7 |
| 20260510091605 | 59 | 136 | 0.0 | 2.0 | 0.00 | 0.06 | 0.06 | 92 | 1015.7 |
| 20260510090604 | 59 | 135 | 0.0 | 3.0 | 0.00 | 0.06 | 0.06 | 92 | 1015.6 |
| 20260510085604 | 59 | 135 | 0.0 | 2.0 | 0.00 | 0.06 | 0.06 | 92 | 1015.7 |
| 20260510085104 | 58 | 135 | 1.0 | 2.0 | 0.00 | 0.06 | 0.06 | 92 | 1015.7 |
| 20260510084606 | 58 | 135 | 1.0 | 2.0 | 0.00 | 0.06 | 0.06 | 92 | 1015.7 |
| 20260510084104 | 58 | 136 | 1.0 | 2.0 | 0.00 | 0.06 | 0.06 | 92 | 1015.7 |
| 20260510083609 | 58 | 151 | 1.0 | 3.0 | 0.00 | 0.06 | 0.06 | 92 | 1015.7 |
| 20260510083104 | 58 | 148 | 0.0 | 3.0 | 0.00 | 0.06 | 0.06 | 92 | 1015.7 |
| 20260510082609 | 58 | 279 | 0.0 | 3.0 | 0.00 | 0.06 | 0.06 | 93 | 1015.7 |
| 20260510082104 | 58 | 118 | 0.0 | 2.0 | 0.00 | 0.06 | 0.06 | 93 | 1015.7 |
| 20260510081604 | 58 | 42 | 0.0 | 2.0 | 0.00 | 0.06 | 0.06 | 93 | 1015.7 |
| 20260510081105 | 58 | 40 | 1.0 | 2.0 | 0.00 | 0.06 | 0.06 | 93 | 1015.7 |
| 20260510080104 | 58 | 259 | 1.0 | 3.0 | 0.00 | 0.06 | 0.06 | 93 | 1015.7 |
| 20260510075604 | 58 | 195 | 0.0 | 2.0 | 0.00 | 0.06 | 0.06 | 93 | 1015.6 |
| 20260510075105 | 58 | 242 | 1.0 | 2.0 | 0.00 | 0.06 | 0.06 | 93 | 1015.6 |
| 20260510074605 | 58 | 242 | 1.0 | 2.0 | 0.00 | 0.06 | 0.06 | 94 | 1015.6 |
| 20260510074104 | 58 | 242 | 1.0 | 2.0 | 0.00 | 0.06 | 0.06 | 94 | 1015.5 |
| 20260510073104 | 58 | 128 | 0.0 | 2.0 | 0.00 | 0.06 | 0.06 | 94 | 1015.5 |
| 20260510072604 | 58 | 126 | 0.0 | 2.0 | 0.00 | 0.06 | 0.06 | 94 | 1015.5 |
| 20260510072104 | 58 | 126 | 0.0 | 2.0 | 0.00 | 0.06 | 0.06 | 94 | 1015.5 |
| 20260510071605 | 58 | 126 | 0.0 | 2.0 | 0.00 | 0.06 | 0.06 | 94 | 1015.5 |
| 20260510071104 | 58 | 126 | 0.0 | 2.0 | 0.00 | 0.06 | 0.06 | 95 | 1015.6 |
| 20260510070606 | 57 | 126 | 0.0 | 2.0 | 0.00 | 0.06 | 0.06 | 95 | 1015.6 |
| 20260510070106 | 57 | 126 | 0.0 | 2.0 | 0.00 | 0.06 | 0.06 | 95 | 1015.6 |
| 20260510065603 | 57 | 126 | 0.0 | 2.0 | 0.00 | 0.06 | 0.06 | 95 | 1015.7 |
| 20260510065104 | 57 | 126 | 1.0 | 3.0 | 0.00 | 0.06 | 0.06 | 95 | 1015.7 |
| 20260510064103 | 57 | 128 | 2.0 | 2.0 | 0.00 | 0.06 | 0.06 | 95 | 1015.6 |
| 20260510063604 | 57 | 128 | 2.0 | 5.0 | 0.00 | 0.06 | 0.06 | 95 | 1015.5 |
| 20260510063104 | 57 | 125 | 1.0 | 5.0 | 0.00 | 0.06 | 0.06 | 95 | 1015.5 |
| 20260510061105 | 57 | 138 | 1.0 | 3.0 | 0.00 | 0.06 | 0.06 | 95 | 1015.4 |
| 20260510060104 | 57 | 139 | 0.0 | 2.0 | 0.00 | 0.06 | 0.06 | 95 | 1015.4 |
| 20260510055604 | 57 | 139 | 0.0 | 1.0 | 0.01 | 0.06 | 0.06 | 95 | 1015.3 |
| 20260510055104 | 57 | 139 | 1.0 | 1.0 | 0.01 | 0.06 | 0.06 | 95 | 1015.3 |
| 20260510054604 | 57 | 139 | 1.0 | 2.0 | 0.01 | 0.06 | 0.06 | 95 | 1015.3 |
| 20260510054104 | 57 | 139 | 1.0 | 2.0 | 0.01 | 0.06 | 0.06 | 95 | 1015.2 |
| 20260510053604 | 56 | 139 | 1.0 | 3.0 | 0.01 | 0.06 | 0.06 | 95 | 1015.2 |
| 20260510053104 | 56 | 146 | 1.0 | 3.0 | 0.02 | 0.06 | 0.06 | 95 | 1015.2 |
| 20260510052104 | 56 | 147 | 0.0 | 2.0 | 0.02 | 0.06 | 0.06 | 95 | 1015.1 |
| 20260510051104 | 56 | 147 | 0.0 | 1.0 | 0.02 | 0.06 | 0.06 | 94 | 1015.1 |
| 20260510050604 | 56 | 147 | 0.0 | 2.0 | 0.04 | 0.06 | 0.06 | 94 | 1015.1 |
| 20260510050104 | 56 | 147 | 2.0 | 2.0 | 0.04 | 0.06 | 0.06 | 94 | 1015.1 |
| 20260510045604 | 56 | 147 | 2.0 | 1.0 | 0.03 | 0.05 | 0.05 | 94 | 1015.0 |
| 20260510045104 | 56 | 147 | 2.0 | 2.0 | 0.03 | 0.05 | 0.05 | 93 | 1015.0 |
| 20260510044604 | 56 | 148 | 2.0 | 3.0 | 0.03 | 0.05 | 0.05 | 93 | 1015.0 |
| 20260510044105 | 56 | 154 | 2.0 | 5.0 | 0.03 | 0.05 | 0.05 | 93 | 1015.0 |
| 20260510042603 | 56 | 284 | 1.0 | 3.0 | 0.02 | 0.04 | 0.04 | 92 | 1015.1 |
| 20260510042104 | 56 | 265 | 2.0 | 2.0 | 0.02 | 0.04 | 0.04 | 92 | 1015.1 |
| 20260510041604 | 56 | 84 | 2.0 | 2.0 | 0.02 | 0.04 | 0.04 | 92 | 1015.1 |
| 20260510041104 | 56 | 37 | 1.0 | 2.0 | 0.02 | 0.04 | 0.04 | 92 | 1015.0 |
| 20260510040604 | 56 | 148 | 1.0 | 5.0 | 0.01 | 0.02 | 0.02 | 92 | 1014.9 |
| 20260510040104 | 56 | 225 | 2.0 | 3.0 | 0.01 | 0.02 | 0.02 | 91 | 1014.9 |
| 20260510035604 | 56 | 138 | 2.0 | 3.0 | 0.01 | 0.02 | 0.02 | 91 | 1014.9 |
| 20260510035119 | 56 | 249 | 2.0 | 5.0 | 0.01 | 0.02 | 0.02 | 91 | 1014.9 |
| 20260510034604 | 56 | 255 | 2.0 | 6.0 | 0.02 | 0.02 | 0.02 | 91 | 1014.9 |
| 20260510034104 | 56 | 283 | 2.0 | 5.0 | 0.02 | 0.02 | 0.02 | 90 | 1015.0 |
| 20260510033103 | 56 | 154 | 2.0 | 5.0 | 0.02 | 0.02 | 0.02 | 90 | 1015.0 |
| 20260510032604 | 57 | 258 | 2.0 | 3.0 | 0.02 | 0.02 | 0.02 | 89 | 1014.9 |
| 20260510032104 | 57 | 351 | 2.0 | 3.0 | 0.02 | 0.02 | 0.02 | 89 | 1014.9 |
| 20260510030604 | 58 | 303 | 2.0 | 6.0 | 0.01 | 0.01 | 0.01 | 87 | 1014.5 |
| 20260510025604 | 58 | 325 | 2.0 | 5.0 | 0.01 | 0.01 | 0.01 | 87 | 1014.5 |
| 20260510025104 | 58 | 303 | 2.0 | 5.0 | 0.01 | 0.01 | 0.01 | 86 | 1014.5 |
| 20260510024604 | 59 | 295 | 2.0 | 5.0 | 0.00 | 0.00 | 0.00 | 87 | 1014.5 |
| 20260510023103 | 58 | 283 | 1.0 | 3.0 | 0.00 | 0.00 | 0.00 | 88 | 1014.3 |
| 20260510022604 | 58 | 133 | 0.0 | 2.0 | 0.00 | 0.00 | 0.00 | 88 | 1014.3 |
| 20260510022104 | 58 | 133 | 0.0 | 2.0 | 0.00 | 0.00 | 0.00 | 88 | 1014.3 |
| 20260510021607 | 58 | 133 | 0.0 | 2.0 | 0.00 | 0.00 | 0.00 | 88 | 1014.3 |
| 20260510020604 | 58 | 133 | 1.0 | 0.0 | 0.00 | 0.00 | 0.00 | 88 | 1014.4 |
| 20260510020104 | 58 | 133 | 1.0 | 2.0 | 0.00 | 0.00 | 0.00 | 88 | 1014.4 |
| 20260510015604 | 58 | 133 | 0.0 | 2.0 | 0.00 | 0.00 | 0.00 | 88 | 1014.3 |
| 20260510015105 | 58 | 133 | 2.0 | 2.0 | 0.00 | 0.00 | 0.00 | 88 | 1014.3 |
| 20260510014606 | 58 | 133 | 2.0 | 2.0 | 0.00 | 0.00 | 0.00 | 88 | 1014.3 |
| 20260510013604 | 58 | 20 | 2.0 | 3.0 | 0.00 | 0.00 | 0.00 | 87 | 1014.7 |
| 20260510012604 | 58 | 118 | 2.0 | 5.0 | 0.00 | 0.00 | 0.00 | 88 | 1014.8 |
| 20260510011605 | 58 | 127 | 2.0 | 6.0 | 0.00 | 0.00 | 0.00 | 87 | 1014.8 |
| 20260510011104 | 58 | 123 | 2.0 | 5.0 | 0.00 | 0.00 | 0.00 | 87 | 1014.9 |
| 20260510010611 | 58 | 117 | 2.0 | 5.0 | 0.00 | 0.00 | 0.00 | 87 | 1014.9 |
| 20260510010105 | 58 | 117 | 2.0 | 3.0 | 0.00 | 0.00 | 0.00 | 86 | 1014.9 |
| 20260510005607 | 58 | 117 | 2.0 | 5.0 | 0.00 | 0.00 | 0.00 | 86 | 1015.0 |
| 20260510005105 | 58 | 125 | 1.0 | 5.0 | 0.00 | 0.00 | 0.00 | 86 | 1015.1 |
| 20260510004604 | 58 | 125 | 1.0 | 2.0 | 0.00 | 0.00 | 0.00 | 87 | 1015.1 |
| 20260510004104 | 58 | 125 | 1.0 | 2.0 | 0.00 | 0.00 | 0.00 | 87 | 1015.2 |
| 20260510003604 | 57 | 125 | 0.0 | 2.0 | 0.00 | 0.00 | 0.00 | 87 | 1015.3 |
| 20260510003104 | 57 | 125 | 1.0 | 0.0 | 0.00 | 0.00 | 0.00 | 87 | 1015.3 |
| 20260510002604 | 57 | 125 | 1.0 | 0.0 | 0.00 | 0.00 | 0.00 | 87 | 1015.4 |
| 20260510002119 | 57 | 125 | 2.0 | 2.0 | 0.00 | 0.00 | 0.00 | 87 | 1015.5 |
| 20260510001604 | 57 | 125 | 2.0 | 2.0 | 0.00 | 0.00 | 0.00 | 87 | 1015.5 |
| 20260510001107 | 58 | 125 | 1.0 | 3.0 | 0.00 | 0.00 | 0.00 | 86 | 1015.5 |
| 20260510000604 | 58 | 125 | 1.0 | 3.0 | 0.00 | 0.00 | 0.00 | 86 | 1015.5 |
| 20260509235606 | 58 | 125 | 0.0 | 2.0 | 0.00 | 0.00 | 0.00 | 86 | 1015.7 |
| 20260509235104 | 58 | 125 | 0.0 | 0.0 | 0.00 | 0.00 | 0.00 | 86 | 1015.8 |
| 20260509233604 | 58 | 125 | 0.0 | 2.0 | 0.00 | 0.00 | 0.00 | 87 | 1015.8 |
| 20260509232619 | 58 | 125 | 1.0 | 0.0 | 0.00 | 0.00 | 0.00 | 86 | 1015.9 |
| 20260509231605 | 58 | 125 | 1.0 | 2.0 | 0.00 | 0.00 | 0.00 | 86 | 1015.9 |